When you browse on this site, cookies collect data to enhance your experience and personalize the content and advertising you see.
Visit our Privacy Policy to learn more. By continuing to use the site, you agree to this use of cookies and data.
  • In Latvia
  • List of Countries
  • For 7 days
  • Water Temperature
  • Satellite Maps
  • Weather Map
  • Weather Widgets
  • user-avatar
    Login

    Hourly Weather Kalgoorlie

    Today, 24 March, Sunday

    Time Temperature Precipitation Wind Pressure Humidity
    00:00 +20°C° 0 mm 3 mps 729 mmHg 76%
    01:00 +19°C° 0 mm 3 mps 729 mmHg 78%
    02:00 +19°C° 0 mm 2 mps 729 mmHg 78%
    03:00 +19°C° 0 mm 2 mps 729 mmHg 79%
    04:00 +18°C° 0 mm 2 mps 729 mmHg 79%
    05:00 +18°C° 0 mm 3 mps 729 mmHg 79%
    06:00 +18°C° 0 mm 3 mps 730 mmHg 74%
    07:00 +18°C° 0 mm 4 mps 730 mmHg 68%
    08:00 +19°C° 0 mm 4 mps 731 mmHg 62%
    09:00 +20°C° 0 mm 5 mps 730 mmHg 54%
    10:00 +21°C° 0 mm 5 mps 730 mmHg 47%
    11:00 +23°C° 0 mm 5 mps 730 mmHg 40%
    12:00 +25°C° 0 mm 5 mps 730 mmHg 35%
    13:00 +26°C° 0 mm 5 mps 729 mmHg 31%
    14:00 +27°C° 0 mm 5 mps 729 mmHg 28%
    15:00 +27°C° 0 mm 5 mps 729 mmHg 28%
    16:00 +27°C° 0 mm 6 mps 730 mmHg 28%
    17:00 +27°C° 0 mm 6 mps 730 mmHg 28%
    18:00 +23°C° 0 mm 7 mps 730 mmHg 36%
    19:00 +21°C° 0 mm 8 mps 730 mmHg 45%
    20:00 +18°C° 0 mm 8 mps 731 mmHg 53%
    21:00 +17°C° 0 mm 8 mps 731 mmHg 56%
    22:00 +16°C° 0 mm 8 mps 731 mmHg 58%
    23:00 +15°C° 0 mm 8 mps 732 mmHg 61%

    Tomorrow, 25 March, Monday

    Time Temperature Precipitation Wind Pressure Humidity
    00:00 +15°C° 0 mm 8 mps 732 mmHg 62%
    01:00 +14°C° 0 mm 7 mps 732 mmHg 64%
    02:00 +12°C° 0 mm 7 mps 732 mmHg 66%
    03:00 +12°C° 0 mm 7 mps 732 mmHg 67%
    04:00 +12°C° 0 mm 7 mps 733 mmHg 67%
    05:00 +11°C° 0 mm 6 mps 733 mmHg 68%
    06:00 +12°C° 0 mm 7 mps 733 mmHg 66%
    07:00 +12°C° 0 mm 7 mps 734 mmHg 64%
    08:00 +14°C° 0 mm 7 mps 734 mmHg 62%
    09:00 +16°C° 0 mm 7 mps 734 mmHg 55%
    10:00 +17°C° 0 mm 7 mps 734 mmHg 47%
    11:00 +20°C° 0 mm 7 mps 734 mmHg 40%
    12:00 +22°C° 0 mm 7 mps 733 mmHg 37%
    13:00 +23°C° 0 mm 7 mps 733 mmHg 34%
    14:00 +24°C° 0 mm 7 mps 733 mmHg 30%
    15:00 +24°C° 0 mm 7 mps 733 mmHg 31%
    16:00 +23°C° 0 mm 7 mps 733 mmHg 32%
    17:00 +23°C° 0 mm 7 mps 733 mmHg 33%
    18:00 +22°C° 0 mm 7 mps 733 mmHg 37%
    19:00 +21°C° 0 mm 7 mps 734 mmHg 40%
    20:00 +20°C° 0 mm 7 mps 734 mmHg 44%
    21:00 +18°C° 0 mm 7 mps 734 mmHg 47%
    22:00 +18°C° 0 mm 7 mps 735 mmHg 50%
    23:00 +17°C° 0 mm 7 mps 735 mmHg 54%

    Day after tomorrow, 26 March, Tuesday

    Time Temperature Precipitation Wind Pressure Humidity
    00:00 +16°C° 0 mm 7 mps 735 mmHg 57%
    01:00 +16°C° 0 mm 7 mps 735 mmHg 60%
    02:00 +15°C° 0 mm 7 mps 735 mmHg 64%
    03:00 +15°C° 0 mm 7 mps 735 mmHg 66%
    04:00 +14°C° 0 mm 7 mps 735 mmHg 69%
    05:00 +14°C° 0 mm 6 mps 735 mmHg 71%
    06:00 +14°C° 0 mm 7 mps 735 mmHg 69%
    07:00 +15°C° 0 mm 7 mps 735 mmHg 67%
    08:00 +15°C° 0 mm 7 mps 736 mmHg 66%
    09:00 +17°C° 0 mm 7 mps 735 mmHg 57%
    10:00 +21°C° 0 mm 7 mps 735 mmHg 49%
    11:00 +23°C° 0 mm 7 mps 735 mmHg 41%
    12:00 +24°C° 0 mm 7 mps 735 mmHg 37%
    13:00 +26°C° 0 mm 7 mps 734 mmHg 32%
    14:00 +28°C° 0 mm 7 mps 733 mmHg 28%
    15:00 +28°C° 0 mm 6 mps 733 mmHg 27%
    16:00 +28°C° 0 mm 6 mps 733 mmHg 27%
    17:00 +28°C° 0 mm 6 mps 733 mmHg 26%
    18:00 +27°C° 0 mm 6 mps 733 mmHg 29%
    19:00 +26°C° 0 mm 5 mps 733 mmHg 31%
    20:00 +25°C° 0 mm 5 mps 734 mmHg 33%
    21:00 +23°C° 0 mm 5 mps 734 mmHg 36%
    22:00 +23°C° 0 mm 5 mps 734 mmHg 38%
    23:00 +22°C° 0 mm 6 mps 734 mmHg 40%

    27 March, Wednesday

    Time Temperature Precipitation Wind Pressure Humidity
    00:00 +21°C° 0 mm 5 mps 734 mmHg 41%
    01:00 +21°C° 0 mm 5 mps 733 mmHg 43%
    02:00 +20°C° 0 mm 4 mps 733 mmHg 44%
    03:00 +20°C° 0 mm 4 mps 732 mmHg 45%
    04:00 +20°C° 0 mm 4 mps 732 mmHg 46%
    05:00 +19°C° 0 mm 4 mps 732 mmHg 48%
    06:00 +20°C° 0 mm 5 mps 732 mmHg 46%
    07:00 +21°C° 0 mm 5 mps 733 mmHg 44%
    08:00 +21°C° 0 mm 5 mps 733 mmHg 42%
    09:00 +23°C° 0 mm 5 mps 733 mmHg 37%
    10:00 +26°C° 0 mm 5 mps 733 mmHg 33%
    11:00 +28°C° 0 mm 5 mps 732 mmHg 28%
    12:00 +29°C° 0 mm 4 mps 732 mmHg 26%
    13:00 +30°C° 0 mm 2 mps 731 mmHg 24%
    14:00 +31°C° 0 mm 1 mps 731 mmHg 22%
    15:00 +31°C° 0 mm 2 mps 730 mmHg 24%
    16:00 +30°C° 0 mm 3 mps 730 mmHg 26%
    17:00 +29°C° 0 mm 4 mps 730 mmHg 28%
    18:00 +28°C° 0 mm 4 mps 730 mmHg 31%
    19:00 +28°C° 0 mm 3 mps 731 mmHg 33%
    20:00 +27°C° 0 mm 3 mps 731 mmHg 35%
    21:00 +27°C° 0 mm 2 mps 731 mmHg 35%
    22:00 +26°C° 0 mm 2 mps 731 mmHg 35%
    23:00 +26°C° 0 mm 2 mps 731 mmHg 36%

    28 March, Thursday

    Time Temperature Precipitation Wind Pressure Humidity
    00:00 +26°C° 0 mm 2 mps 731 mmHg 36%
    01:00 +25°C° 0 mm 2 mps 730 mmHg 37%
    02:00 +25°C° 0 mm 2 mps 730 mmHg 37%
    03:00 +24°C° 0 mm 2 mps 730 mmHg 39%
    04:00 +24°C° 0 mm 3 mps 730 mmHg 42%
    05:00 +22°C° 0 mm 3 mps 730 mmHg 44%
    06:00 +22°C° 0 mm 4 mps 731 mmHg 45%
    07:00 +22°C° 0 mm 4 mps 731 mmHg 47%
    08:00 +22°C° 0 mm 5 mps 732 mmHg 49%
    09:00 +25°C° 0 mm 4 mps 732 mmHg 43%
    10:00 +27°C° 0 mm 3 mps 731 mmHg 37%
    11:00 +29°C° 0 mm 2 mps 731 mmHg 31%
    12:00 +30°C° 0 mm 2 mps 731 mmHg 30%
    13:00 +31°C° 0 mm 2 mps 730 mmHg 29%
    14:00 +32°C° 0 mm 1 mps 730 mmHg 29%
    15:00 +31°C° 0.1 mm 2 mps 730 mmHg 32%
    16:00 +30°C° 0.1 mm 3 mps 730 mmHg 35%
    17:00 +29°C° 0.1 mm 3 mps 730 mmHg 39%
    18:00 +28°C° 0 mm 4 mps 731 mmHg 41%
    19:00 +28°C° 0 mm 4 mps 731 mmHg 44%
    20:00 +27°C° 0 mm 5 mps 732 mmHg 47%
    21:00 +24°C° 0 mm 6 mps 732 mmHg 53%
    22:00 +23°C° 0 mm 8 mps 732 mmHg 59%
    23:00 +21°C° 0 mm 9 mps 733 mmHg 66%

    29 March, Friday

    Time Temperature Precipitation Wind Pressure Humidity
    00:00 +19°C° 0 mm 9 mps 733 mmHg 68%
    01:00 +18°C° 0 mm 8 mps 733 mmHg 71%
    02:00 +17°C° 0 mm 8 mps 733 mmHg 73%
    03:00 +17°C° 0 mm 8 mps 733 mmHg 73%
    04:00 +17°C° 0 mm 7 mps 733 mmHg 73%
    05:00 +16°C° 0 mm 7 mps 734 mmHg 73%
    06:00 +16°C° 0 mm 7 mps 734 mmHg 71%
    07:00 +16°C° 0 mm 8 mps 735 mmHg 69%
    08:00 +16°C° 0 mm 8 mps 735 mmHg 68%
    09:00 +18°C° 0 mm 8 mps 735 mmHg 61%
    10:00 +21°C° 0 mm 7 mps 735 mmHg 55%
    11:00 +22°C° 0 mm 7 mps 734 mmHg 48%
    12:00 +24°C° 0 mm 7 mps 734 mmHg 44%
    13:00 +26°C° 0 mm 7 mps 733 mmHg 41%
    14:00 +27°C° 0 mm 7 mps 733 mmHg 37%
    15:00 +27°C° 0 mm 7 mps 733 mmHg 37%
    16:00 +27°C° 0 mm 7 mps 733 mmHg 37%
    17:00 +26°C° 0 mm 7 mps 733 mmHg 36%
    18:00 +24°C° 0 mm 8 mps 734 mmHg 38%
    19:00 +23°C° 0 mm 8 mps 735 mmHg 39%
    20:00 +22°C° 0 mm 8 mps 735 mmHg 40%
    21:00 +21°C° 0 mm 8 mps 735 mmHg 44%
    22:00 +20°C° 0 mm 8 mps 735 mmHg 47%
    23:00 +18°C° 0 mm 8 mps 735 mmHg 51%
    Show more